Погода в Большом Султаново

Россия / Курганская область     54°48′58″N   62°09′49″E
темп.,
°C
ветер,
м/с
пор.,
м/с
влажн.,
%
обл.,
%
осадки,
мм/ч
давл.,
гПа
погр.,
м
12 мая, ср
ср1223:00+16з1131100 0.0 102711
02:00+14зюз22370 0.0 102810
05:00+12з23425 0.0 102815
08:00+17зсз343612 0.0 1028245
11:00+23сз44295 0.0 10281067
14:00+25ссз453532 0.0 10272507
17:00+25ссз553226 0.0 10262497
20:00+21св364850 0.0 1026108
13 мая, чт
чт1323:00+17св224410 0.0 102711
02:00+15всв1158100 0.0 102711
05:00+14сз226295 0.0 102713
08:00+19ссз34487 0.0 1028263
11:00+23ссз343413 0.0 10271451
14:00+26сз453056 0.0 10261944
17:00+26ссз562962 0.0 10252142
20:00+22с224030 0.0 102512
14 мая, пт
пт1423:00+19св11445 0.0 102611
02:00+17зсз11485 0.0 102711
05:00+15ссв12555 0.0 102811
08:00+21зюз00435 0.0 1028187
11:00+26юз22305 0.0 10271502
14:00+28зюз33260 0.0 10262569
17:00+29зюз34265 0.0 10252907
20:00+25юз123730 0.0 102411
15 мая, сб
сб1523:00+21юз224370 0.0 102413
02:00+19зюз34472 0.0 102445
05:00+17ссз36573 0.0 102578
08:00+22сз23430 0.0 1025255
11:00+27з34285 0.0 10241216
14:00+29з55235 0.0 10232519
17:00+29з45234 0.0 10212548
20:00+25юз33375 0.0 102043
16 мая, вс
вс1623:00+21зсз334559 0.0 102041
02:00+19зсз33521 0.0 102132
05:00+17зсз33563 0.0 102135
08:00+22зсз3544100 0.0 1022272
11:00+27зсз343083 0.0 10211248
14:00+30зсз44245 0.0 10202247
17:00+30зсз33225 0.0 10192929
20:00+26зюз22325 0.0 101911